Location: Plainartige
(45.6866°N, 1.7993°E)
Time: 16:59:38
(UTC+00:00)

SL-8 Rocket - Pass Details

Date: 03 March 2021
Orbit: 957 x 991 km, 82.9° (Epoch: 11 April)

Event Time Altitude Azimuth Distance (km) Brightness Sun altitude
Rises 19:50:17 0° 193° (SSW) 3,669 7.0 -22.9°
Reaches altitude 10° 19:52:48 10° 196° (SSW) 2,721 6.3 -23.4°
Maximum altitude 19:59:01 71° 280° (W) 1,026 4.2 -24.4°
Drops below altitude 10° 20:05:14 10° 5° (N) 2,715 6.5 -25.4°
Sets 20:07:45 0° 7° (N) 3,662 7.1 -25.9°
